Coldwater, MI

9:46 AM EDT on September 25, 2016 (GMT -0400)
Branch County Memorial

Weather History for KOEB - August, 2014

Change the Weather History Date:

Tuesday, August 26, 2014

  Actual Average (KJYM) Record (KJYM)
Temperature  
Mean Temperature 72 °F -  
Max Temperature 79 °F 80 °F 96 °F (1948)
Min Temperature 66 °F 56 °F 40 °F (1984)
Cooling Degree Days 8    
Growing Degree Days 22 (Base 50)    
Moisture  
Dew Point 69 °F    
Average Humidity 89    
Maximum Humidity 96    
Minimum Humidity 69    
Precipitation  
Precipitation 0.00 in - - ()
Sea Level Pressure  
Sea Level Pressure 30.09 in    
Wind  
Wind Speed 2 mph (WSW)    
Max Wind Speed 15 mph    
Max Gust Speed 23 mph    
Visibility 9 miles    
Events Rain    
Averages and records for this station are not official NWS values.
T = Trace of Precipitation, MM = Missing Value Source: NWS Daily Summary

Daily Weather History Graph

Daily Weather History Graph

Search for Another Location

Airport or City:

Trip Planner

Search our weather history database for the weather conditions in past years. The results will help you decide how hot, cold, wet, or windy it might be!

Date:

Astronomy

Aug. 26, 2014 Rise Set
Actual Time 6:59 AM EDT 8:23 PM EDT
Civil Twilight 6:30 AM EDT 8:52 PM EDT
Nautical Twilight 5:55 AM EDT 9:27 PM EDT
Astronomical Twilight 5:18 AM EDT 10:04 PM EDT
Moon 8:01 AM EDT (8/26) 8:42 PM EDT (8/26)
Length of Visible Light 14h 22m
Length of Day
13h 23m
New Moon, 1% of the Moon is Illuminated
Aug 26
New Moon
Sep 2
First Quarter
Sep 8
Full
Sep 15
Last Quarter
Sep 24
New

Hourly Weather History & Observations

Time (EDT) Temp. Dew Point Humidity Pressure Visibility Wind Dir Wind Speed Gust Speed Precip Events Conditions
12:14 AM 72.5 °F 68.0 °F 86% 30.07 in 10.0 mi WSW 4.6 mph - N/A   Clear
12:35 AM 72.0 °F 68.0 °F 87% 30.07 in 10.0 mi Calm Calm - N/A   Clear
12:54 AM 72.7 °F 67.5 °F 84% 30.06 in 10.0 mi SSE 3.5 mph - N/A   Clear
1:15 AM 72.3 °F 67.5 °F 85% 30.06 in 10.0 mi Calm Calm - N/A   Clear
1:34 AM 72.0 °F 67.6 °F 86% 30.05 in 10.0 mi Calm Calm - N/A   Clear
1:54 AM 70.3 °F 67.1 °F 89% 30.07 in 10.0 mi Calm Calm - N/A   Clear
2:14 AM 69.4 °F 67.3 °F 93% 30.07 in 10.0 mi Calm Calm - N/A   Clear
2:34 AM 68.4 °F 66.7 °F 95% 30.06 in 10.0 mi Calm Calm - N/A   Clear
2:55 AM 68.9 °F 66.7 °F 93% 30.05 in 10.0 mi Calm Calm - N/A   Clear
3:14 AM 67.6 °F 66.2 °F 95% 30.06 in 10.0 mi Calm Calm - N/A   Clear
3:34 AM 67.3 °F 65.7 °F 95% 30.06 in 7.0 mi Calm Calm - N/A   Clear
3:55 AM 67.1 °F 65.8 °F 96% 30.06 in 7.0 mi Calm Calm - N/A   Clear
4:14 AM 66.7 °F 65.5 °F 96% 30.06 in 7.0 mi Calm Calm - N/A   Mostly Cloudy
4:34 AM 67.8 °F 66.4 °F 95% 30.06 in 10.0 mi Calm Calm - N/A   Mostly Cloudy
4:54 AM 67.3 °F 66.2 °F 96% 30.06 in 7.0 mi Calm Calm - N/A   Mostly Cloudy
5:14 AM 67.6 °F 66.4 °F 96% 30.06 in 7.0 mi Calm Calm - N/A   Mostly Cloudy
5:35 AM 67.8 °F 66.6 °F 96% 30.06 in 7.0 mi Calm Calm - N/A   Scattered Clouds
5:54 AM 68.0 °F 66.6 °F 95% 30.06 in 7.0 mi SSE 3.5 mph - N/A   Mostly Cloudy
6:14 AM 68.2 °F 66.4 °F 94% 30.07 in 10.0 mi Calm Calm - N/A   Scattered Clouds
6:35 AM 66.9 °F 65.5 °F 95% 30.08 in 7.0 mi Calm Calm - N/A   Mostly Cloudy
6:54 AM 67.6 °F 66.4 °F 96% 30.08 in 7.0 mi Calm Calm - N/A   Scattered Clouds
7:14 AM 67.5 °F 66.2 °F 96% 30.09 in 7.0 mi Calm Calm - N/A   Scattered Clouds
7:35 AM 68.9 °F 67.1 °F 94% 30.10 in 7.0 mi Calm Calm - N/A   Mostly Cloudy
7:54 AM 70.0 °F 68.2 °F 94% 30.10 in 7.0 mi Calm Calm - N/A   Mostly Cloudy
8:14 AM 71.1 °F 68.2 °F 91% 30.11 in 10.0 mi SW 4.6 mph - N/A   Overcast
8:35 AM 71.6 °F 68.4 °F 89% 30.11 in 10.0 mi SW 4.6 mph - N/A   Mostly Cloudy
8:54 AM 74.5 °F 68.9 °F 83% 30.11 in 10.0 mi WSW 5.8 mph - N/A   Scattered Clouds
9:14 AM 77.2 °F 68.7 °F 75% 30.11 in 10.0 mi West 4.6 mph - N/A   Clear
9:35 AM 77.0 °F 68.5 °F 75% 30.11 in 10.0 mi WSW 5.8 mph - N/A   Clear
9:54 AM 75.7 °F 69.1 °F 80% 30.13 in 10.0 mi SW 8.1 mph - N/A   Clear
10:14 AM 73.6 °F 70.5 °F 90% 30.12 in 4.0 mi West 4.6 mph - N/A Rain Rain
10:34 AM 73.8 °F 71.2 °F 92% 30.14 in 10.0 mi WNW 6.9 mph - N/A   Mostly Cloudy
10:54 AM 74.3 °F 71.2 °F 90% 30.13 in 10.0 mi WSW 3.5 mph - N/A   Scattered Clouds
11:15 AM 74.3 °F 71.2 °F 90% 30.13 in 10.0 mi Calm Calm - N/A   Clear
11:34 AM 74.7 °F 70.5 °F 87% 30.13 in 10.0 mi WNW 3.5 mph - N/A   Scattered Clouds
11:54 AM 74.7 °F 71.6 °F 90% 30.12 in 10.0 mi NNW 5.8 mph - N/A Rain Light Rain
12:14 PM 74.3 °F 70.5 °F 88% 30.11 in 10.0 mi SSE 3.5 mph - N/A Rain Light Rain
12:34 PM 75.2 °F 70.5 °F 85% 30.11 in 10.0 mi South 3.5 mph - N/A   Clear
12:55 PM 76.1 °F 70.7 °F 83% 30.12 in 10.0 mi SSW 4.6 mph - N/A   Clear
1:14 PM 77.0 °F 70.3 °F 80% 30.11 in 10.0 mi Calm Calm - N/A   Clear
1:34 PM 78.4 °F 69.6 °F 74% 30.12 in 10.0 mi SW 3.5 mph - N/A   Clear
1:54 PM 78.8 °F 68.9 °F 72% 30.12 in 10.0 mi SSW 5.8 mph - N/A   Clear
2:14 PM 79.2 °F 68.4 °F 69% 30.12 in 10.0 mi North - - N/A   Clear
2:35 PM 78.8 °F 70.0 °F 74% 30.11 in 10.0 mi WSW 6.9 mph - N/A   Scattered Clouds
2:54 PM 78.8 °F 70.0 °F 74% 30.14 in 10.0 mi West 12.7 mph - N/A   Mostly Cloudy
3:14 PM 76.3 °F 70.3 °F 82% 30.14 in 7.0 mi West 15.0 mph 23.0 mph N/A Rain Light Rain
3:35 PM 73.8 °F 70.5 °F 90% 30.13 in 10.0 mi Calm Calm - N/A   Mostly Cloudy
3:54 PM 73.8 °F 70.9 °F 91% 30.11 in 10.0 mi NNE 4.6 mph - N/A   Scattered Clouds
4:14 PM 74.3 °F 70.9 °F 89% 30.11 in 10.0 mi North 4.6 mph - N/A Rain Light Rain
4:35 PM 74.3 °F 70.9 °F 89% 30.09 in 10.0 mi South 4.6 mph - N/A   Scattered Clouds
4:54 PM 74.3 °F 71.6 °F 91% 30.07 in 10.0 mi ESE 4.6 mph - N/A   Clear
5:14 PM 74.7 °F 71.4 °F 90% 30.06 in 10.0 mi Calm Calm - N/A   Clear
5:35 PM 75.6 °F 71.6 °F 87% 30.07 in 10.0 mi Calm Calm - N/A   Clear
5:54 PM 75.4 °F 71.4 °F 87% 30.08 in 10.0 mi Calm Calm - N/A   Clear
6:14 PM 75.2 °F 71.6 °F 89% 30.08 in 10.0 mi Calm Calm - N/A   Clear
6:34 PM 75.2 °F 72.0 °F 90% 30.07 in 10.0 mi Calm Calm - N/A   Clear
6:54 PM 75.4 °F 71.1 °F 86% 30.07 in 10.0 mi Calm Calm - N/A   Clear
7:14 PM 76.3 °F 71.2 °F 84% 30.07 in 10.0 mi Calm Calm - N/A   Clear
7:34 PM 76.1 °F 71.6 °F 86% 30.08 in 10.0 mi WNW 4.6 mph - N/A   Clear
7:54 PM 74.7 °F 71.2 °F 89% 30.08 in 10.0 mi West 5.8 mph - N/A   Scattered Clouds
8:15 PM 73.4 °F 70.9 °F 92% 30.09 in 10.0 mi WNW 5.8 mph - N/A   Scattered Clouds
8:34 PM 72.7 °F 70.7 °F 93% 30.09 in 10.0 mi SW 3.5 mph - N/A   Scattered Clouds
8:54 PM 71.6 °F 70.0 °F 95% 30.08 in 7.0 mi Calm Calm - N/A   Scattered Clouds
9:15 PM 71.4 °F 70.0 °F 95% 30.08 in 7.0 mi Calm Calm - N/A   Mostly Cloudy
9:34 PM 70.5 °F 69.1 °F 95% 30.09 in 5.0 mi Calm Calm - N/A   Scattered Clouds
9:54 PM 69.3 °F 68.2 °F 96% 30.09 in 4.0 mi Calm Calm - N/A   Scattered Clouds
10:15 PM 70.0 °F 68.9 °F 96% 30.09 in 4.0 mi Calm Calm - N/A   Mostly Cloudy
10:34 PM 71.6 °F 70.3 °F 96% 30.09 in 3.0 mi Calm Calm - N/A   Overcast
10:54 PM 72.0 °F 70.9 °F 96% 30.10 in 4.0 mi Calm Calm - N/A   Overcast
11:15 PM 72.5 °F 71.2 °F 96% 30.10 in 4.0 mi Calm Calm - N/A   Overcast
11:34 PM 72.5 °F 71.2 °F 96% 30.10 in 4.0 mi Calm Calm - N/A   Overcast
11:54 PM 72.0 °F 70.9 °F 96% 30.10 in 4.0 mi Calm Calm - N/A   Overcast